sat.trackr.live / text

‹ back to catalog

SAUDICOMSAT 4

NORAD 31127 · 2007-012L

PAYLOAD ACTIVE UNKNOWN

§ Identity

Operator
Country
SAUD
Launch date
2007-04-17
Launch site
TYMSC
Launch vehicle
Mass (kg)
RCS (m²)
0.07

External: N2YO · Heavens-Above · Gunter

§ Orbital elements

Epoch: 2026-05-24T20:33:21.248352Z

Period
98.33 min
Inclination
98.3971°
Eccentricity
0.0062828
Mean motion
14.64480721 rev/d
Perigee alt
634.4 km
Apogee alt
723.1 km
Semi-major
7,056.9 km
B*
1.0428e-4
RAAN
116.9538°
Arg perigee
332.4423°
Mean anomaly
27.3452°
Rev number
1,787

§ Raw data

SAUDICOMSAT 41 31127U 07012L   26144.85649593  .00000514  00000+0  10428-3 0  99972 31127  98.3971 116.9538 0062828 332.4423  27.3452 14.64480721 17876

JSON: /api/v1/satellites/31127 · /tle

For live sub-satellite position, see the globe view (requires WebGL).

§ Visibility from observer

Set your observer location to see the next 7 days of passes ≥ 10°. The values pass through the URL so the page stays shareable.

No JS? Fill the form by hand. The geolocation button needs JavaScript.